• In Czech Republic
  • List of Countries
  • For 7 days
  • Water Temperature
  • Satellite Maps
  • Weather Map
  • Weather Widgets
  • user-avatar
    Login

    Hourly Weather Scafati

    Today, 21 January, Sunday

    Time Temperature Precipitation Wind Pressure Humidity
    00:00 +9°C° 0.1 mm 5 mps 757 mmHg 84%
    01:00 +9°C° 0 mm 6 mps 756 mmHg 82%
    02:00 +9°C° 0.2 mm 5 mps 756 mmHg 83%
    03:00 +9°C° 0.2 mm 5 mps 755 mmHg 84%
    04:00 +9°C° 0.2 mm 5 mps 754 mmHg 85%
    05:00 +10°C° 0.6 mm 5 mps 754 mmHg 87%
    06:00 +10°C° 0.6 mm 5 mps 753 mmHg 89%
    07:00 +10°C° 0.6 mm 6 mps 752 mmHg 91%
    08:00 +11°C° 0.5 mm 6 mps 752 mmHg 91%
    09:00 +11°C° 0.5 mm 6 mps 751 mmHg 90%
    10:00 +13°C° 0.5 mm 5 mps 751 mmHg 90%
    11:00 +13°C° 0.3 mm 5 mps 750 mmHg 85%
    12:00 +14°C° 0.3 mm 4 mps 750 mmHg 81%
    13:00 +16°C° 0.3 mm 3 mps 750 mmHg 77%
    14:00 +16°C° 0.2 mm 3 mps 750 mmHg 74%
    15:00 +15°C° 0.2 mm 4 mps 751 mmHg 72%
    16:00 +14°C° 0.2 mm 4 mps 751 mmHg 69%
    17:00 +13°C° 0 mm 4 mps 752 mmHg 70%
    18:00 +12°C° 0 mm 4 mps 753 mmHg 71%
    19:00 +11°C° 0 mm 4 mps 754 mmHg 72%
    20:00 +9°C° 0 mm 5 mps 755 mmHg 73%
    21:00 +9°C° 0 mm 5 mps 756 mmHg 73%
    22:00 +8°C° 0 mm 6 mps 757 mmHg 74%
    23:00 +8°C° 0 mm 6 mps 757 mmHg 71%

    Tomorrow, 22 January, Monday

    Time Temperature Precipitation Wind Pressure Humidity
    00:00 +8°C° 0 mm 6 mps 758 mmHg 68%
    01:00 +8°C° 0 mm 6 mps 759 mmHg 65%
    02:00 +7°C° 0 mm 6 mps 759 mmHg 66%
    03:00 +7°C° 0 mm 6 mps 759 mmHg 68%
    04:00 +6°C° 0 mm 5 mps 760 mmHg 69%
    05:00 +6°C° 0 mm 5 mps 760 mmHg 69%
    06:00 +5°C° 0 mm 4 mps 760 mmHg 69%
    07:00 +5°C° 0 mm 4 mps 760 mmHg 69%
    08:00 +7°C° 0 mm 3 mps 761 mmHg 63%
    09:00 +8°C° 0 mm 3 mps 761 mmHg 58%
    10:00 +9°C° 0 mm 3 mps 761 mmHg 52%
    11:00 +10°C° 0 mm 2 mps 761 mmHg 47%
    12:00 +12°C° 0 mm 1 mps 760 mmHg 43%
    13:00 +13°C° 0 mm 1 mps 760 mmHg 38%
    14:00 +13°C° 0 mm 1 mps 760 mmHg 40%
    15:00 +13°C° 0 mm 1 mps 760 mmHg 42%
    16:00 +13°C° 0 mm 1 mps 760 mmHg 45%
    17:00 +12°C° 0 mm 1 mps 760 mmHg 47%
    18:00 +11°C° 0 mm 1 mps 760 mmHg 49%
    19:00 +10°C° 0 mm 1 mps 760 mmHg 51%
    20:00 +10°C° 0 mm 1 mps 761 mmHg 52%
    21:00 +10°C° 0 mm 1 mps 761 mmHg 53%
    22:00 +10°C° 0 mm 1 mps 761 mmHg 54%
    23:00 +10°C° 0 mm 1 mps 761 mmHg 54%

    Day after tomorrow, 23 January, Tuesday

    Time Temperature Precipitation Wind Pressure Humidity
    00:00 +9°C° 0 mm 2 mps 761 mmHg 55%
    01:00 +9°C° 0 mm 2 mps 761 mmHg 55%
    02:00 +9°C° 0 mm 2 mps 761 mmHg 57%
    03:00 +9°C° 0 mm 2 mps 761 mmHg 59%
    04:00 +9°C° 0 mm 3 mps 761 mmHg 61%
    05:00 +9°C° 0.1 mm 3 mps 762 mmHg 63%
    06:00 +9°C° 0.1 mm 3 mps 762 mmHg 65%
    07:00 +8°C° 0.1 mm 3 mps 763 mmHg 68%
    08:00 +10°C° 0 mm 3 mps 763 mmHg 63%
    09:00 +11°C° 0 mm 3 mps 764 mmHg 59%
    10:00 +12°C° 0 mm 3 mps 764 mmHg 54%
    11:00 +13°C° 0 mm 3 mps 765 mmHg 52%
    12:00 +14°C° 0 mm 3 mps 765 mmHg 49%
    13:00 +16°C° 0 mm 3 mps 765 mmHg 47%
    14:00 +14°C° 0 mm 3 mps 765 mmHg 50%
    15:00 +14°C° 0 mm 3 mps 766 mmHg 53%
    16:00 +14°C° 0 mm 3 mps 766 mmHg 55%
    17:00 +12°C° 0 mm 3 mps 766 mmHg 60%
    18:00 +12°C° 0 mm 2 mps 767 mmHg 64%
    19:00 +10°C° 0 mm 2 mps 767 mmHg 69%
    20:00 +9°C° 0 mm 2 mps 768 mmHg 69%
    21:00 +9°C° 0 mm 3 mps 768 mmHg 70%
    22:00 +9°C° 0 mm 3 mps 768 mmHg 70%
    23:00 +8°C° 0 mm 3 mps 769 mmHg 69%

    24 January, Wednesday

    Time Temperature Precipitation Wind Pressure Humidity
    00:00 +8°C° 0 mm 3 mps 769 mmHg 67%
    01:00 +8°C° 0 mm 2 mps 769 mmHg 66%
    02:00 +8°C° 0 mm 2 mps 769 mmHg 65%
    03:00 +8°C° 0 mm 2 mps 769 mmHg 64%
    04:00 +8°C° 0 mm 2 mps 769 mmHg 63%
    05:00 +8°C° 0 mm 2 mps 769 mmHg 62%
    06:00 +8°C° 0 mm 2 mps 769 mmHg 62%
    07:00 +7°C° 0 mm 2 mps 770 mmHg 61%
    08:00 +9°C° 0 mm 2 mps 770 mmHg 57%
    09:00 +12°C° 0 mm 2 mps 770 mmHg 53%
    10:00 +13°C° 0 mm 1 mps 770 mmHg 49%
    11:00 +14°C° 0 mm 1 mps 770 mmHg 46%
    12:00 +15°C° 0 mm 1 mps 770 mmHg 43%
    13:00 +18°C° 0 mm 1 mps 770 mmHg 40%
    14:00 +16°C° 0 mm 1 mps 770 mmHg 42%
    15:00 +16°C° 0 mm 1 mps 769 mmHg 45%
    16:00 +16°C° 0 mm 1 mps 769 mmHg 48%
    17:00 +14°C° 0 mm 1 mps 770 mmHg 53%
    18:00 +13°C° 0 mm 1 mps 770 mmHg 57%
    19:00 +11°C° 0 mm 1 mps 770 mmHg 61%
    20:00 +11°C° 0 mm 1 mps 770 mmHg 63%
    21:00 +11°C° 0 mm 1 mps 770 mmHg 64%
    22:00 +10°C° 0 mm 1 mps 770 mmHg 66%
    23:00 +10°C° 0 mm 1 mps 770 mmHg 66%

    25 January, Thursday

    Time Temperature Precipitation Wind Pressure Humidity
    00:00 +10°C° 0 mm 1 mps 770 mmHg 67%
    01:00 +10°C° 0 mm 1 mps 770 mmHg 67%
    02:00 +9°C° 0 mm 1 mps 770 mmHg 67%
    03:00 +8°C° 0 mm 2 mps 769 mmHg 68%
    04:00 +8°C° 0 mm 2 mps 769 mmHg 69%
    05:00 +8°C° 0 mm 2 mps 769 mmHg 69%
    06:00 +8°C° 0 mm 2 mps 769 mmHg 70%
    07:00 +8°C° 0 mm 2 mps 769 mmHg 71%
    08:00 +9°C° 0 mm 2 mps 769 mmHg 67%
    09:00 +12°C° 0 mm 2 mps 769 mmHg 63%
    10:00 +13°C° 0 mm 2 mps 769 mmHg 59%
    11:00 +14°C° 0 mm 2 mps 768 mmHg 57%
    12:00 +15°C° 0 mm 2 mps 768 mmHg 56%
    13:00 +16°C° 0 mm 2 mps 767 mmHg 54%
    14:00 +15°C° 0 mm 2 mps 767 mmHg 58%
    15:00 +15°C° 0 mm 2 mps 767 mmHg 61%
    16:00 +15°C° 0 mm 2 mps 766 mmHg 64%
    17:00 +13°C° 0 mm 2 mps 766 mmHg 70%
    18:00 +12°C° 0 mm 2 mps 766 mmHg 77%
    19:00 +10°C° 0 mm 2 mps 767 mmHg 83%
    20:00 +10°C° 0.1 mm 2 mps 766 mmHg 84%
    21:00 +10°C° 0.1 mm 2 mps 766 mmHg 85%
    22:00 +10°C° 0.1 mm 2 mps 766 mmHg 86%
    23:00 +10°C° 0.1 mm 2 mps 766 mmHg 87%

    26 January, Friday

    Time Temperature Precipitation Wind Pressure Humidity
    00:00 +10°C° 0.1 mm 2 mps 766 mmHg 88%
    01:00 +10°C° 0.1 mm 2 mps 765 mmHg 89%
    02:00 +10°C° 0.2 mm 3 mps 765 mmHg 90%
    03:00 +10°C° 0.2 mm 3 mps 765 mmHg 91%
    04:00 +10°C° 0.2 mm 3 mps 764 mmHg 91%
    05:00 +10°C° 0.2 mm 3 mps 764 mmHg 92%
    06:00 +10°C° 0.2 mm 3 mps 764 mmHg 93%
    07:00 +10°C° 0.2 mm 3 mps 764 mmHg 93%
    08:00 +11°C° 0.1 mm 3 mps 764 mmHg 90%
    09:00 +12°C° 0.1 mm 3 mps 764 mmHg 88%
    10:00 +13°C° 0.1 mm 3 mps 764 mmHg 85%
    11:00 +13°C° 0.1 mm 3 mps 764 mmHg 83%
    12:00 +13°C° 0.1 mm 3 mps 763 mmHg 82%
    13:00 +14°C° 0.1 mm 3 mps 763 mmHg 80%
    14:00 +14°C° 0.1 mm 3 mps 763 mmHg 80%
    15:00 +14°C° 0.1 mm 3 mps 763 mmHg 80%
    16:00 +14°C° 0.1 mm 3 mps 763 mmHg 79%
    17:00 +13°C° 0.1 mm 3 mps 763 mmHg 83%
    18:00 +12°C° 0.1 mm 3 mps 763 mmHg 86%
    19:00 +11°C° 0.1 mm 3 mps 764 mmHg 89%
    20:00 +11°C° 0 mm 3 mps 764 mmHg 89%
    21:00 +11°C° 0 mm 3 mps 764 mmHg 88%
    22:00 +11°C° 0 mm 3 mps 764 mmHg 88%
    23:00 +10°C° 0 mm 3 mps 764 mmHg 87%
    Show more